�������l�o���
Date,Time,MP-1(��Sv/h),MP-2(��Sv/h),MP-3(��Sv/h),MP-4(��Sv/h),MP-5(��Sv/h),MP-6(��Sv/h),MP-7(��Sv/h),����,����(m/s),���J
2020/12/01,00:00,0.178,0.160,0.262,0.249,0.241,0.141,0.086,�k��,5.4,��
2020/12/01,00:10,0.179,0.161,0.263,0.249,0.241,0.141,0.085,�k�k��,4.9,��
2020/12/01,00:20,0.178,0.159,0.264,0.248,0.242,0.141,0.085,�k��,3.9,��
2020/12/01,00:30,0.179,0.160,0.263,0.250,0.241,0.142,0.086,�k�k��,4.6,��
2020/12/01,00:40,0.178,0.161,0.263,0.249,0.241,0.142,0.086,�k��,5.6,��
2020/12/01,00:50,0.178,0.160,0.264,0.249,0.243,0.142,0.086,�k��,5.8,��
2020/12/01,01:00,0.179,0.161,0.263,0.248,0.241,0.141,0.086,�k��,5.6,��
2020/12/01,01:10,0.178,0.160,0.263,0.250,0.242,0.141,0.086,�k��,5.6,��
2020/12/01,01:20,0.179,0.161,0.263,0.248,0.241,0.142,0.086,�k��,5.7,��
2020/12/01,01:30,0.179,0.161,0.263,0.250,0.243,0.142,0.086,�k��,6.5,��
2020/12/01,01:40,0.179,0.160,0.264,0.249,0.241,0.142,0.086,�k��,7.8,��
2020/12/01,01:50,0.179,0.160,0.263,0.249,0.241,0.142,0.086,�k��,7.3,��
2020/12/01,02:00,0.178,0.160,0.263,0.249,0.241,0.141,0.086,�k��,7.6,��
2020/12/01,02:10,0.177,0.160,0.263,0.248,0.243,0.141,0.086,�k��,7.1,��
2020/12/01,02:20,0.178,0.160,0.264,0.247,0.241,0.142,0.086,�k��,5.9,��
2020/12/01,02:30,0.179,0.160,0.264,0.248,0.242,0.142,0.085,�k��,6.0,��
2020/12/01,02:40,0.180,0.161,0.262,0.248,0.242,0.142,0.086,�k��,6.8,��
2020/12/01,02:50,0.179,0.160,0.261,0.248,0.242,0.142,0.086,�k��,5.9,��
2020/12/01,03:00,0.179,0.160,0.263,0.247,0.240,0.141,0.086,�k��,4.7,��
2020/12/01,03:10,0.178,0.159,0.264,0.249,0.241,0.142,0.086,�k��,5.3,��
2020/12/01,03:20,0.178,0.160,0.262,0.247,0.241,0.141,0.086,�k�k��,4.7,��
2020/12/01,03:30,0.179,0.160,0.262,0.248,0.241,0.142,0.085,�k�k��,4.2,��
2020/12/01,03:40,0.179,0.160,0.262,0.247,0.242,0.141,0.086,�k�k��,4.3,��
2020/12/01,03:50,0.178,0.161,0.262,0.248,0.241,0.141,0.086,�k�k��,4.7,��
2020/12/01,04:00,0.179,0.160,0.261,0.248,0.241,0.141,0.086,�k�k��,3.7,��
2020/12/01,04:10,0.179,0.161,0.262,0.247,0.242,0.141,0.085,�k�k��,4.2,��
2020/12/01,04:20,0.179,0.160,0.263,0.248,0.242,0.141,0.087,�k�k��,5.1,��
2020/12/01,04:30,0.179,0.160,0.263,0.249,0.242,0.142,0.086,�k�k��,2.9,��
2020/12/01,04:40,0.177,0.160,0.263,0.248,0.241,0.142,0.085,�k�k��,3.3,��
2020/12/01,04:50,0.178,0.160,0.262,0.247,0.240,0.141,0.086,�k�k��,4.8,��
2020/12/01,05:00,0.178,0.161,0.262,0.248,0.242,0.141,0.087,�k��,5.2,��
2020/12/01,05:10,0.178,0.161,0.262,0.249,0.242,0.142,0.086,�k�k��,4.2,��
2020/12/01,05:20,0.178,0.160,0.263,0.249,0.241,0.142,0.086,�k,4.0,��
2020/12/01,05:30,0.179,0.160,0.262,0.248,0.243,0.142,0.086,�k�k��,3.4,��
2020/12/01,05:40,0.179,0.161,0.263,0.249,0.241,0.141,0.086,�k�k��,3.4,��
2020/12/01,05:50,0.179,0.160,0.263,0.248,0.241,0.142,0.085,�k�k��,2.4,��
2020/12/01,06:00,0.180,0.161,0.262,0.249,0.243,0.141,0.086,�k�k��,2.4,��
2020/12/01,06:10,0.178,0.160,0.263,0.248,0.240,0.141,0.086,�k,2.7,��
2020/12/01,06:20,0.179,0.160,0.262,0.249,0.241,0.143,0.086,�k�k��,3.1,��
2020/12/01,06:30,0.178,0.160,0.263,0.249,0.242,0.141,0.087,�k��,2.0,��
2020/12/01,06:40,0.179,0.159,0.262,0.249,0.241,0.142,0.085,���k��,1.6,��
2020/12/01,06:50,0.178,0.160,0.263,0.248,0.241,0.141,0.087,���k��,1.8,��
2020/12/01,07:00,0.178,0.161,0.263,0.248,0.240,0.141,0.086,��,3.1,��
2020/12/01,07:10,0.178,0.160,0.262,0.248,0.242,0.141,0.085,���k��,4.2,��
2020/12/01,07:20,0.179,0.159,0.264,0.248,0.241,0.142,0.086,���k��,3.8,��
2020/12/01,07:30,0.177,0.161,0.263,0.248,0.240,0.141,0.087,��,3.0,��
2020/12/01,07:40,0.177,0.160,0.262,0.248,0.240,0.141,0.085,��,3.0,��
2020/12/01,07:50,0.179,0.159,0.263,0.249,0.241,0.142,0.086,��,2.0,��
2020/12/01,08:00,0.178,0.160,0.263,0.247,0.241,0.141,0.086,��,2.2,��
2020/12/01,08:10,0.178,0.160,0.262,0.247,0.241,0.142,0.085,���k��,2.4,��
2020/12/01,08:20,0.177,0.160,0.263,0.249,0.242,0.141,0.085,���k��,1.8,��
2020/12/01,08:30,0.179,0.159,0.261,0.247,0.242,0.141,0.087,�k�k��,1.8,��
2020/12/01,08:40,0.178,0.161,0.262,0.248,0.241,0.140,0.086,�k�k��,2.4,��
2020/12/01,08:50,0.178,0.160,0.263,0.248,0.242,0.140,0.085,�k�k��,2.3,��
2020/12/01,09:00,0.177,0.160,0.262,0.247,0.241,0.141,0.086,�k�k��,2.5,��
2020/12/01,09:10,0.179,0.159,0.263,0.249,0.242,0.142,0.086,�k�k��,1.5,��
2020/12/01,09:20,0.178,0.160,0.262,0.246,0.242,0.142,0.085,�k�k��,1.2,��
2020/12/01,09:30,0.178,0.159,0.263,0.248,0.240,0.142,0.086,���k��,1.0,��
2020/12/01,09:40,0.179,0.159,0.261,0.247,0.242,0.142,0.086,�k�k��,1.8,��
2020/12/01,09:50,0.178,0.159,0.262,0.248,0.242,0.142,0.085,�k�k��,1.5,��
2020/12/01,10:00,0.177,0.159,0.262,0.249,0.243,0.141,0.086,�k�k��,0.8,��
2020/12/01,10:10,0.178,0.160,0.261,0.248,0.239,0.141,0.086,��,3.2,��
2020/12/01,10:20,0.176,0.159,0.261,0.248,0.241,0.142,0.085,���k��,4.0,��
2020/12/01,10:30,0.179,0.160,0.261,0.248,0.240,0.141,0.086,�k��,3.3,��
2020/12/01,10:40,0.176,0.159,0.260,0.247,0.241,0.142,0.085,��,2.7,��
2020/12/01,10:50,0.177,0.159,0.261,0.247,0.239,0.141,0.085,�k��,2.7,��
2020/12/01,11:00,0.176,0.159,0.260,0.248,0.241,0.142,0.085,�k��,2.7,��
2020/12/01,11:10,0.177,0.160,0.262,0.247,0.242,0.142,0.086,�k��,2.9,��
2020/12/01,11:20,0.176,0.159,0.262,0.249,0.240,0.142,0.086,�k�k��,3.6,��
2020/12/01,11:30,0.177,0.161,0.263,0.248,0.243,0.142,0.086,�k��,4.7,��
2020/12/01,11:40,0.178,0.160,0.263,0.247,0.240,0.141,0.085,�k,3.7,��
2020/12/01,11:50,0.179,0.160,0.263,0.250,0.242,0.141,0.085,�k,3.6,��
2020/12/01,12:00,0.178,0.160,0.263,0.248,0.242,0.142,0.086,�k��,3.0,��
2020/12/01,12:10,0.178,0.160,0.262,0.249,0.242,0.142,0.085,�k��,2.7,��
2020/12/01,12:20,0.177,0.160,0.263,0.248,0.241,0.142,0.086,���k��,1.1,��
2020/12/01,12:30,0.177,0.160,0.263,0.248,0.241,0.141,0.085,��,1.2,��
2020/12/01,12:40,0.177,0.160,0.262,0.249,0.243,0.141,0.085,��,5.3,��
2020/12/01,12:50,0.178,0.161,0.263,0.247,0.241,0.142,0.085,��,5.8,��
2020/12/01,13:00,0.176,0.159,0.262,0.248,0.242,0.141,0.086,��,6.2,��
2020/12/01,13:10,0.178,0.160,0.263,0.248,0.242,0.142,0.086,��,5.0,��
2020/12/01,13:20,0.176,0.160,0.262,0.248,0.242,0.142,0.085,���k��,5.3,��
2020/12/01,13:30,0.177,0.160,0.264,0.247,0.242,0.142,0.085,�k��,4.3,��
2020/12/01,13:40,0.177,0.159,0.261,0.249,0.241,0.142,0.086,�k��,5.2,��
2020/12/01,13:50,0.179,0.160,0.263,0.248,0.242,0.142,0.085,�k��,4.9,��
2020/12/01,14:00,0.178,0.160,0.264,0.249,0.241,0.141,0.085,�k�k��,6.4,��
2020/12/01,14:10,0.179,0.160,0.263,0.248,0.241,0.143,0.085,�k�k��,5.8,��
2020/12/01,14:20,0.179,0.160,0.264,0.249,0.242,0.140,0.086,�k�k��,6.3,��
2020/12/01,14:30,0.178,0.160,0.264,0.248,0.241,0.142,0.085,�k�k��,5.9,��
2020/12/01,14:40,0.179,0.161,0.262,0.249,0.242,0.141,0.086,�k��,5.9,��
2020/12/01,14:50,0.178,0.160,0.263,0.249,0.243,0.143,0.086,�k��,5.0,��
2020/12/01,15:00,0.178,0.160,0.263,0.249,0.242,0.141,0.085,�k��,3.5,��
2020/12/01,15:10,0.179,0.162,0.264,0.250,0.245,0.142,0.085,�k��,4.0,��
2020/12/01,15:20,0.179,0.160,0.264,0.250,0.242,0.141,0.086,�k�k��,4.6,��
2020/12/01,15:30,0.178,0.162,0.263,0.248,0.241,0.142,0.086,�k��,5.7,��
2020/12/01,15:40,0.178,0.162,0.263,0.251,0.243,0.140,0.086,�k��,4.8,��
2020/12/01,15:50,0.179,0.160,0.263,0.250,0.243,0.143,0.085,�k��,5.7,��
2020/12/01,16:00,0.179,0.161,0.265,0.249,0.242,0.142,0.085,�k��,5.1,��
2020/12/01,16:10,0.180,0.161,0.263,0.249,0.242,0.142,0.086,�k��,4.7,��
2020/12/01,16:20,0.178,0.160,0.264,0.250,0.241,0.142,0.086,�k�k��,5.2,��
2020/12/01,16:30,0.178,0.161,0.264,0.248,0.242,0.143,0.086,�k�k��,6.2,��
2020/12/01,16:40,0.179,0.161,0.263,0.249,0.242,0.143,0.086,�k�k��,7.0,��
2020/12/01,16:50,0.177,0.161,0.262,0.250,0.241,0.143,0.086,�k�k��,7.3,��
2020/12/01,17:00,0.178,0.162,0.264,0.248,0.242,0.142,0.085,�k�k��,7.5,��
2020/12/01,17:10,0.179,0.161,0.263,0.250,0.242,0.142,0.086,�k��,7.3,��
2020/12/01,17:20,0.179,0.160,0.264,0.249,0.242,0.142,0.085,�k��,6.7,��
2020/12/01,17:30,0.178,0.161,0.264,0.248,0.242,0.142,0.085,���k��,6.9,��
2020/12/01,17:40,0.179,0.163,0.264,0.249,0.241,0.142,0.086,�k��,6.7,��
2020/12/01,17:50,0.179,0.162,0.263,0.249,0.241,0.142,0.086,�k��,8.2,��
2020/12/01,18:00,0.178,0.160,0.265,0.249,0.242,0.142,0.086,�k��,8.5,��
2020/12/01,18:10,0.178,0.161,0.263,0.249,0.241,0.142,0.086,�k��,8.6,��
2020/12/01,18:20,0.180,0.161,0.265,0.250,0.241,0.142,0.086,���k��,8.5,��
2020/12/01,18:30,0.179,0.160,0.265,0.250,0.241,0.142,0.086,���k��,7.3,��
2020/12/01,18:40,0.179,0.161,0.264,0.249,0.243,0.142,0.087,���k��,6.1,��
2020/12/01,18:50,0.178,0.162,0.263,0.250,0.242,0.142,0.086,���k��,5.7,��
2020/12/01,19:00,0.179,0.160,0.264,0.249,0.242,0.142,0.087,���k��,7.4,��
2020/12/01,19:10,0.179,0.160,0.263,0.249,0.241,0.142,0.086,���k��,7.8,��
2020/12/01,19:20,0.178,0.161,0.263,0.249,0.242,0.142,0.085,���k��,7.3,��
2020/12/01,19:30,0.179,0.160,0.263,0.249,0.242,0.142,0.086,���k��,7.7,��
2020/12/01,19:40,0.179,0.160,0.264,0.249,0.242,0.141,0.086,�k��,5.4,��
2020/12/01,19:50,0.178,0.160,0.264,0.249,0.241,0.141,0.085,���k��,5.8,��
2020/12/01,20:00,0.179,0.161,0.262,0.249,0.242,0.142,0.086,���k��,5.4,��
2020/12/01,20:10,0.180,0.160,0.264,0.250,0.242,0.142,0.086,���k��,5.6,��
2020/12/01,20:20,0.177,0.161,0.266,0.250,0.242,0.142,0.086,�k��,6.2,��
2020/12/01,20:30,0.179,0.160,0.264,0.249,0.243,0.141,0.085,�k��,6.2,��
2020/12/01,20:40,0.179,0.160,0.264,0.250,0.242,0.142,0.087,�k��,6.5,��
2020/12/01,20:50,0.179,0.161,0.263,0.250,0.242,0.142,0.086,�k��,6.5,��
2020/12/01,21:00,0.179,0.160,0.265,0.249,0.243,0.142,0.086,�k��,7.3,��
2020/12/01,21:10,0.178,0.161,0.265,0.248,0.242,0.141,0.086,�k��,7.9,��
2020/12/01,21:20,0.179,0.161,0.264,0.249,0.241,0.142,0.086,�k��,7.4,��
2020/12/01,21:30,0.179,0.160,0.265,0.250,0.242,0.142,0.086,�k��,6.9,��
2020/12/01,21:40,0.180,0.161,0.264,0.250,0.242,0.143,0.085,���k��,7.4,��
2020/12/01,21:50,0.178,0.161,0.265,0.250,0.241,0.142,0.086,���k��,6.6,��
2020/12/01,22:00,0.179,0.161,0.263,0.250,0.243,0.143,0.085,��,5.8,��
2020/12/01,22:10,0.179,0.161,0.264,0.249,0.243,0.141,0.085,��,5.6,��
2020/12/01,22:20,0.178,0.160,0.265,0.249,0.241,0.141,0.086,��,6.8,��
2020/12/01,22:30,0.179,0.160,0.263,0.249,0.243,0.142,0.086,���k��,7.6,��
2020/12/01,22:40,0.179,0.161,0.263,0.248,0.243,0.142,0.087,���k��,7.5,��
2020/12/01,22:50,0.178,0.160,0.263,0.249,0.242,0.142,0.086,���k��,7.8,��
2020/12/01,23:00,0.179,0.161,0.264,0.249,0.242,0.142,0.086,���k��,7.1,��
2020/12/01,23:10,0.178,0.160,0.264,0.249,0.242,0.142,0.086,���k��,6.3,��
2020/12/01,23:20,0.179,0.162,0.263,0.250,0.243,0.142,0.086,���k��,6.8,��
2020/12/01,23:30,0.179,0.161,0.264,0.250,0.242,0.141,0.086,���k��,6.7,��
2020/12/01,23:40,0.178,0.161,0.264,0.249,0.243,0.142,0.087,���k��,7.4,��
2020/12/01,23:50,0.179,0.160,0.265,0.250,0.241,0.142,0.086,���k��,7.8,��
